SCP
0 0 0 0 0 0 0 0 0 0 0 0 0 0 0 0 0 0 0 0 0 0 0 0 0 0 0 0 0 0 0 0 0 0 0 0 0 0 0 0 0 0 0
0 0 0 0 0 0 0 0 0 0 0 0 0 0 0 0 0 0 0 0 0 0 0 0 0 0 0 0 0 0 0 0 0 0 0 0 0 0 0 0 0 0 0
0 0 0 0 0 0 0 0 0 0 0 0 0 0 0 0 0 0 0 0 0 0 0 0 0 0 0 0 0 0 0 0 0 0 0 1 1 0 0 0 0 0 0
0 0 0 0 0 0 0 0 0 0 0 0 0 0 0 0 0 0 0 0 0 0 0 0 0 0 0 0 0 0 0 0 0 0 0 1 1 1 1 0 0 0 0
0 0 0 0 0 0 0 0 0 0 0 0 0 0 0 0 0 0 0 0 0 0 0 0 0 0 0 0 0 0 0 0 1 1 1 1 1 1 1 1 1 1 1
0 0 0 0 0 0 0 0 0 0 0 0 0 0 0 0 0 0 0 0 0 0 0 0 0 0 0 0 0 0 0 0 1 1 1 1 1 1 1 1 1 1 1
0 0 0 0 0 0 0 0 0 0 0 0 0 0 0 0 0 0 0 0 0 0 0 0 0 0 0 0 0 0 0 0 0 1 1 1 1 1 1 1 1 1 1
0 0 0 0 0 0 0 0 0 0 0 0 0 0 0 0 0 0 0 0 0 0 0 0 0 0 0 0 0 0 0 0 0 0 1 1 1 1 1 1 1 1 1
0 0 0 0 0 0 0 0 0 0 0 0 0 0 0 0 0 0 0 0 0 0 0 0 0 0 0 0 0 0 0 0 0 0 1 1 1 1 1 1 1 1 1
0 0 0 0 0 0 0 0 0 0 0 0 0 0 0 0 0 0 0 0 0 0 0 0 0 0 0 0 0 0 0 0 1 1 1 1 1 1 1 1 1 1 1
0 0 0 0 0 0 0 0 0 0 0 0 0 0 0 0 0 0 0 0 0 0 0 0 0 0 0 0 0 0 0 1 1 1 1 1 1 1 1 1 1 1 1
0 0 0 0 0 0 0 0 0 0 0 0 0 0 0 0 0 0 0 0 0 0 0 0 0 0 0 0 0 0 0 0 0 1 1 1 1 1 1 1 1 1 1
0 0 0 0 0 0 0 0 0 0 0 0 0 0 0 0 0 0 0 0 0 0 0 0 0 0 0 0 0 0 0 0 0 0 0 1 1 1 1 1 1 1 1
0 0 0 0 0 0 0 0 0 0 0 0 0 0 0 0 0 0 0 0 0 0 0 0 0 0 0 0 0 0 0 0 0 0 0 0 0 0 0 0 0 0 0
0 0 0 0 0 0 0 0 0 0 0 0 0 0 0 0 0 0 0 0 0 0 0 0 0 0 0 0 0 0 0 0 0 0 0 0 0 0 0 0 0 0 0
0 0 0 0 0 0 0 0 0 0 0 0 0 0 0 0 0 0 0 0 0 0 0 0 0 0 0 0 0 0 0 0 0 0 0 0 0 0 0 0 0 0 0
0 0 0 0 0 0 0 0 0 0 0 0 0 0 0 0 0 0 0 0 0 0 0 0 0 0 0 0 0 0 0 0 0 0 0 0 0 0 0 0 0 0 0
0 0 0 0 0 0 0 0 0 0 0 0 0 0 0 0 0 0 0 0 0 0 0 0 0 0 0 0 0 0 0 0 0 0 0 0 0 0 0 0 0 0 0
0 0 0 0 0 0 0 0 0 0 0 0 0 0 0 0 0 0 0 0 0 0 0 0 0 0 0 0 0 0 0 0 0 0 0 0 0 0 0 0 0 0 0
0 0 0 0 0 0 0 0 0 0 0 0 0 0 0 0 0 0 0 0 0 0 0 0 0 0 0 0 0 0 0 0 0 0 0 0 0 0 0 0 0 0 0
0 0 0 0 0 0 0 0 0 0 0 0 0 0 0 0 0 0 0 0 0 0 0 0 0 0 0 0 0 0 0 0 0 0 0 0 0 0 0 0 0 0 0
0 0 0 0 0 0 0 0 0 0 0 0 0 0 0 0 0 0 0 0 0 0 0 0 0 0 0 0 0 0 0 0 0 0 0 0 0 0 0 0 0 0 0
0 0 0 0 0 0 0 0 0 0 0 0 0 0 0 0 0 0 0 0 0 0 0 0 0 0 0 0 0 0 0 0 0 0 0 0 0 0 0 0 0 0 0
0 0 0 0 0 0 0 0 0 0 0 0 0 0 0 0 0 0 0 0 0 0 0 0 0 0 0 0 0 0 0 0 0 0 0 0 0 0 0 0 0 0 0
0 0 0 0 0 0 0 0 0 0 0 0 0 0 0 0 0 0 0 0 0 0 0 0 0 0 0 0 0 0 0 0 0 0 0 0 0 0 0 0 0 0 0
0 0 0 0 0 0 0 0 0 0 0 0 0 0 0 0 0 0 0 0 0 0 0 0 0 0 0 0 0 0 0 0 0 0 0 0 0 0 0 0 0 0 0
Wind_Speed
4 5 5 5 6 5 6 6 7 9 10 10 10 12 13 14 14 13 10 13 19 23 25 25 26 26 27 28 29 29 30 30 30 30 30 29 29 29 29 29 29 29 29
4 5 6 5 6 5 6 6 9 9 9 9 11 12 14 14 14 14 13 12 16 22 26 27 28 28 28 29 30 30 30 31 31 31 31 32 32 31 31 31 31 31 31
5 5 5 5 5 6 7 7 9 8 8 9 11 12 12 13 14 15 15 13 12 16 23 27 28 29 29 30 31 31 32 32 32 32 31 32 33 33 34 34 34 34 33
5 4 4 5 6 6 5 6 7 8 8 8 9 10 10 11 15 15 14 13 12 12 14 21 26 28 29 30 32 33 33 33 31 32 32 32 32 34 36 36 36 36 35
6 4 4 5 6 5 5 6 6 7 9 9 9 10 10 11 13 13 14 15 14 14 13 14 18 23 27 29 31 33 33 34 32 32 33 34 33 34 37 38 38 38 38
10 8 6 8 8 6 7 8 9 9 9 9 10 11 11 13 12 12 13 13 12 14 15 16 13 13 20 26 28 30 31 33 33 33 34 35 36 36 37 39 40 40 40
10 9 7 8 8 7 7 9 8 10 9 10 11 11 12 13 12 10 11 12 14 15 16 15 13 12 10 16 21 25 28 30 31 33 34 35 37 38 40 41 41 41 42
10 8 8 6 7 6 7 8 9 8 8 9 11 12 11 11 9 12 14 14 15 15 14 14 14 14 13 11 12 18 23 27 29 31 32 34 35 37 39 41 42 43 43
9 9 9 8 7 7 7 9 10 10 10 10 10 10 10 11 16 12 14 14 16 15 15 16 18 18 18 14 14 16 19 24 29 31 32 33 34 35 37 38 39 41 42
9 9 9 8 8 7 8 9 9 9 9 9 9 8 11 15 14 15 12 13 17 17 18 16 17 19 20 17 16 17 19 23 30 31 32 33 33 34 34 36 37 39 40
8 9 8 8 8 7 8 9 9 9 7 9 9 9 11 11 14 15 18 16 14 14 15 17 17 17 18 18 16 17 21 24 28 30 32 32 33 32 31 31 31 33 36
5 9 8 8 7 7 8 8 8 9 8 9 9 9 10 11 12 14 18 18 17 15 16 15 15 15 14 13 15 16 24 27 28 29 30 30 30 30 28 28 28 28 29
5 8 8 8 7 8 8 8 9 9 9 10 10 9 10 11 12 13 15 17 20 17 18 15 14 14 14 13 14 17 21 26 29 30 30 32 31 30 28 27 27 28 30
5 7 8 8 8 9 9 9 8 9 9 10 11 12 10 11 11 12 13 16 18 18 18 20 15 16 15 16 15 16 19 26 30 31 32 33 32 30 28 27 26 26 27
5 7 8 9 9 9 10 10 8 10 10 11 11 13 11 11 11 12 12 14 15 19 20 21 18 18 16 17 17 18 21 27 32 32 32 32 30 28 28 27 26 26 26
7 8 9 9 10 10 10 10 10 10 12 12 11 13 14 12 12 12 13 13 14 16 19 18 19 20 21 17 21 22 22 30 30 29 31 31 28 29 31 30 28 26 25
7 8 9 10 10 11 11 11 11 13 14 14 14 15 16 16 13 13 13 13 13 14 17 18 17 19 24 23 21 20 19 20 19 28 31 30 31 31 31 29 26 25 24
7 8 9 10 10 11 12 12 13 14 15 16 16 16 17 15 18 15 13 15 14 15 16 20 19 19 23 23 23 22 19 18 19 25 30 31 31 30 30 29 25 22 22
8 9 9 10 11 12 12 13 14 15 16 16 16 17 17 18 18 15 17 16 14 14 15 17 19 18 18 18 21 21 22 18 18 19 25 26 27 28 28 28 26 24 21
8 9 10 11 11 12 12 13 15 17 17 17 17 16 17 17 18 19 16 17 16 17 17 17 16 17 17 20 19 18 18 16 16 17 19 20 24 26 25 26 27 22 18
8 9 11 11 12 11 11 15 17 17 18 18 17 16 16 19 22 19 17 18 18 16 16 16 16 17 18 18 18 17 18 17 18 16 15 14 14 14 16 21 23 22 20
9 10 11 12 13 11 16 21 20 17 17 17 17 17 17 18 20 25 26 26 25 21 19 17 17 19 22 21 19 17 18 18 18 13 14 16 14 15 15 15 21 26 25
10 11 13 14 14 15 19 21 22 19 17 16 17 17 15 15 21 18 23 26 23 24 25 21 22 22 22 21 22 22 20 20 20 16 15 17 14 14 14 15 26 30 30
11 12 13 14 15 15 19 21 24 18 16 16 16 17 18 19 18 22 22 20 18 20 23 20 19 21 22 22 21 21 22 21 19 15 14 15 14 13 14 13 22 26 26
12 13 13 14 15 16 18 21 22 16 14 17 17 17 19 20 24 28 22 19 22 21 22 27 29 28 31 30 24 16 16 16 16 13 10 12 13 13 12 13 15 19 19
13 13 13 13 14 15 17 20 22 13 15 15 15 17 21 22 26 29 21 21 22 21 22 22 22 22 21 21 23 17 14 15 16 14 9 9 11 10 10 8 6 8 11
Wind_Direction
284 296 294 296 292 294 290 290 290 292 288 284 279 277 275 273 269 266 264 241 242 251 255 255 254 254 253 251 250 250 250 251 248 243 241 241 240 240 240 240 239 239 239
295 298 293 291 291 293 296 294 295 295 289 288 285 282 279 277 273 272 271 263 239 244 250 252 252 252 252 252 251 250 249 250 250 248 244 241 239 239 239 239 239 238 238
293 295 297 302 311 314 312 307 307 302 298 297 292 290 288 285 283 280 276 274 267 247 244 251 253 252 250 250 250 250 250 249 248 247 247 244 239 237 236 237 238 238 238
326 319 322 330 338 332 326 324 318 313 309 306 304 302 297 292 286 282 281 277 274 271 259 250 253 257 258 256 254 252 251 249 247 246 247 248 244 239 237 237 237 238 238
26 26 17 8 2 358 353 345 329 323 314 311 304 299 293 286 284 281 278 278 277 274 274 267 252 252 256 259 260 260 258 255 251 248 246 246 246 244 242 240 239 238 237
48 45 41 28 17 14 5 354 342 332 318 318 310 300 295 290 282 281 285 286 283 281 278 278 273 259 250 255 259 262 263 263 260 256 252 248 246 245 244 243 242 240 239
46 40 29 25 15 10 0 349 341 332 328 330 315 311 299 289 294 298 307 304 297 293 287 285 283 279 271 261 259 261 263 264 265 264 261 258 255 252 249 246 244 242 242
39 32 26 18 11 356 355 350 348 335 329 331 325 318 312 308 305 324 306 296 301 300 299 298 291 286 282 278 273 266 266 268 270 271 269 265 261 259 256 253 249 246 244
36 31 22 13 6 360 355 350 350 343 333 330 337 323 319 318 320 301 314 314 309 308 308 305 301 297 289 279 275 267 260 264 269 273 275 274 272 267 263 259 256 253 249
32 23 18 12 6 2 358 353 352 341 335 332 331 325 315 312 311 310 307 312 315 310 306 305 303 301 298 295 287 275 262 263 273 277 277 277 275 273 270 265 261 258 254
29 19 12 9 7 3 360 351 344 343 336 332 328 321 316 313 312 310 308 309 302 300 300 299 297 295 295 296 298 311 338 325 312 302 295 289 285 283 282 280 279 273 263
19 18 9 10 7 0 352 344 336 336 333 329 322 316 314 310 309 306 303 305 303 302 300 295 293 295 299 306 310 336 341 330 325 320 315 309 302 296 293 292 293 297 298
13 8 3 358 356 350 342 338 329 327 326 325 315 315 312 307 307 304 302 304 304 304 301 297 298 302 305 305 302 334 325 318 317 316 317 316 313 309 305 301 295 293 294
2 354 349 344 343 341 336 333 321 323 320 318 313 313 307 305 305 303 304 305 303 303 302 301 306 307 306 303 304 323 310 310 308 309 311 308 305 303 302 299 297 292 286
347 345 342 339 337 334 331 326 320 321 318 315 311 309 306 305 303 305 305 302 302 301 300 304 306 305 306 301 304 307 305 302 302 301 300 298 297 300 300 299 296 295 290
347 339 338 334 330 326 324 321 316 316 312 311 307 305 306 305 305 304 301 299 295 293 295 299 302 303 305 301 302 303 298 298 296 298 298 293 295 298 297 295 294 294 292
341 337 333 326 322 321 322 319 317 316 311 310 309 309 309 307 304 302 300 296 294 295 293 295 298 302 303 302 300 298 296 297 296 294 294 296 294 291 289 289 289 289 290
338 332 324 317 317 320 322 319 315 314 311 311 311 311 309 308 304 301 300 300 299 297 296 298 299 300 301 304 303 303 302 296 292 293 293 292 290 288 286 285 286 288 290
330 323 319 317 318 320 319 315 315 313 311 309 310 309 309 308 305 306 306 302 299 299 297 294 296 299 300 303 305 301 298 295 293 292 292 290 290 290 290 289 289 288 288
322 319 317 315 316 316 312 317 318 312 309 308 307 307 307 307 309 310 305 304 303 302 298 297 298 301 302 303 301 300 299 299 297 298 293 291 290 291 293 296 292 286 280
312 310 308 311 315 314 318 324 315 310 310 307 306 308 307 308 305 305 305 306 304 301 301 299 301 305 304 304 301 301 299 301 299 296 296 294 295 295 295 293 289 280 272
306 307 308 313 314 313 320 316 314 311 309 307 310 310 310 307 308 307 306 305 305 304 303 303 306 304 302 300 300 300 299 297 295 295 298 296 294 289 287 285 285 285 281
309 309 311 314 314 315 316 316 316 313 308 309 312 311 310 309 310 308 309 310 309 306 305 305 303 301 300 299 300 299 296 294 291 296 298 290 289 286 287 288 289 285 282
310 309 311 312 312 312 317 320 320 314 311 312 312 309 308 309 310 312 312 310 309 311 309 306 301 300 298 297 296 295 294 291 288 285 283 287 293 292 292 291 290 285 281
308 309 311 313 312 314 320 321 320 316 313 313 311 308 308 307 310 316 315 312 313 313 312 307 304 302 300 300 299 298 296 295 294 294 295 290 293 294 294 291 285 292 298
307 309 309 311 312 314 318 319 322 316 315 314 310 307 306 309 314 318 315 313 314 314 313 311 309 308 305 302 301 299 300 298 296 296 297 292 294 301 298 285 304 316 314